Location: Stara Lesna
(49.1528°N, 20.2911°E)
Time: 23:29:42
(UTC+02:00)

Cosmos 44 Rocket - Pass Details

Date: 21 September 2019
Orbit: 655 x 735 km, 65.1° (Epoch: 18 October)

Event Time Altitude Azimuth Distance (km) Brightness Sun altitude
Exits shadow 04:36:20 12° 189° (S) 2,071 5.4 -17.8°
Maximum altitude 04:40:42 43° 120° (ESE) 991 4.4 -17.1°
Drops below altitude 10° 04:45:21 10° 50° (NE) 2,160 7.0 -16.4°
Sets 04:47:45 0° 43° (NE) 3,068 7.8 -16.0°
